Wetterdaten: Woche 27.11.17 - 03.12.17 (KW48)
Datum Zeit Temp. A. Pool Temp. Feuchte A. Luftdruck Regen Wind Richtung Sonnenschein ET UV Solar Taupunkt Windchill Windben Empfang
27.11.2017 00:00 1,0 C 4,4 C 92 % 1025,7 hPa 0,0 l/m 9,5 km/h (2 Bft) W-SW 0,00 h 0,000 mm 0,0 UV-I 0 W/m -0,2 C -1,6 C 13,4 km/h (3 Bft) 98,04 %
27.11.2017 01:00 1,3 C 4,4 C 90 % 1025,7 hPa 0,0 l/m 12,2 km/h (2 Bft) W-SW 0,00 h 0,000 mm 0,0 UV-I 0 W/m -0,2 C -3,6 C 16,8 km/h (3 Bft) 99,01 %
27.11.2017 02:00 1,4 C 4,4 C 89 % 1025,8 hPa 0,0 l/m 10,9 km/h (2 Bft) W-SW 0,00 h 0,000 mm 0,0 UV-I 0 W/m -0,2 C -2,6 C 15,8 km/h (3 Bft) 96,10 %
27.11.2017 03:00 1,3 C 4,4 C 89 % 1025,9 hPa 0,0 l/m 11,8 km/h (2 Bft) W-SW 0,00 h 0,000 mm 0,0 UV-I 0 W/m -0,3 C -3,4 C 16,9 km/h (3 Bft) 98,34 %
27.11.2017 04:00 1,3 C 4,4 C 89 % 1026,0 hPa 0,0 l/m 12,0 km/h (2 Bft) W-SW 0,00 h 0,000 mm 0,0 UV-I 0 W/m -0,3 C -3,4 C 18,0 km/h (3 Bft) 98,98 %
27.11.2017 05:00 1,5 C 4,4 C 88 % 1026,2 hPa 0,0 l/m 12,2 km/h (2 Bft) SW 0,00 h 0,000 mm 0,0 UV-I 0 W/m -0,3 C -3,4 C 19,1 km/h (3 Bft) 97,79 %
27.11.2017 06:00 1,5 C 4,4 C 88 % 1026,5 hPa 0,0 l/m 11,5 km/h (2 Bft) SW 0,00 h 0,025 mm 0,0 UV-I 0 W/m -0,2 C -2,8 C 17,5 km/h (3 Bft) 96,85 %
27.11.2017 07:00 1,4 C 4,4 C 89 % 1026,8 hPa 0,0 l/m 9,3 km/h (2 Bft) W-SW 0,00 h 0,000 mm 0,0 UV-I 5 W/m -0,2 C -1,3 C 14,3 km/h (3 Bft) 97,60 %
27.11.2017 08:00 1,6 C 4,4 C 88 % 1026,9 hPa 0,0 l/m 11,6 km/h (2 Bft) SW 0,00 h 0,000 mm 0,0 UV-I 41 W/m -0,1 C -2,8 C 17,3 km/h (3 Bft) 99,21 %
27.11.2017 09:00 2,1 C 4,4 C 87 % 1026,8 hPa 0,2 l/m 11,7 km/h (2 Bft) W-SW 0,10 h 0,026 mm 0,0 UV-I 109 W/m 0,2 C -2,3 C 17,8 km/h (3 Bft) 98,10 %
27.11.2017 10:00 2,6 C 4,4 C 84 % 1026,7 hPa 0,2 l/m 13,2 km/h (3 Bft) SW 0,00 h 0,051 mm 0,0 UV-I 114 W/m 0,2 C -2,7 C 20,0 km/h (4 Bft) 90,51 %
27.11.2017 11:00 3,6 C 4,4 C 78 % 1025,9 hPa 0,0 l/m 12,9 km/h (3 Bft) W-SW 0,60 h 0,050 mm 0,6 UV-I 293 W/m 0,2 C -1,2 C 19,9 km/h (4 Bft) 97,44 %
27.11.2017 12:00 4,7 C 4,4 C 71 % 1024,9 hPa 0,0 l/m 12,4 km/h (3 Bft) W 0,77 h 0,127 mm 0,5 UV-I 266 W/m -0,2 C 0,3 C 19,5 km/h (3 Bft) 98,32 %
27.11.2017 13:00 5,1 C 4,4 C 66 % 1024,0 hPa 0,0 l/m 18,7 km/h (3 Bft) W-SW 0,97 h 0,153 mm 0,4 UV-I 330 W/m -0,7 C -2,4 C 28,2 km/h (4 Bft) 99,10 %
27.11.2017 14:00 4,5 C 4,4 C 68 % 1023,4 hPa 0,0 l/m 14,1 km/h (3 Bft) W-SW 0,57 h 0,178 mm 0,0 UV-I 144 W/m -0,9 C -0,8 C 21,9 km/h (4 Bft) 97,59 %
27.11.2017 15:00 3,7 C 4,4 C 73 % 1022,7 hPa 0,0 l/m 9,1 km/h (2 Bft) SW 0,30 h 0,101 mm 0,0 UV-I 38 W/m -0,7 C 1,4 C 14,1 km/h (3 Bft) 99,17 %
27.11.2017 16:00 3,3 C 4,4 C 75 % 1022,2 hPa 0,0 l/m 6,1 km/h (2 Bft) SW 0,07 h 0,026 mm 0,0 UV-I 8 W/m -0,6 C 2,9 C 9,4 km/h (2 Bft) 97,00 %
27.11.2017 17:00 2,7 C 4,4 C 75 % 1021,8 hPa 0,0 l/m 3,7 km/h (1 Bft) S-SW 0,00 h 0,025 mm 0,0 UV-I 0 W/m -1,4 C 2,7 C 6,0 km/h (2 Bft) 96,43 %
27.11.2017 18:00 2,5 C 4,4 C 72 % 1021,3 hPa 0,0 l/m 5,2 km/h (1 Bft) S-SW 0,00 h 0,000 mm 0,0 UV-I 0 W/m -2,0 C 2,5 C 8,6 km/h (2 Bft) 97,93 %
27.11.2017 19:00 2,7 C 4,4 C 71 % 1020,7 hPa 0,0 l/m 4,2 km/h (1 Bft) S-SW 0,00 h 0,025 mm 0,0 UV-I 0 W/m -2,0 C 2,7 C 6,6 km/h (2 Bft) 98,94 %
27.11.2017 20:00 2,2 C 4,4 C 74 % 1020,1 hPa 0,0 l/m 6,3 km/h (2 Bft) SW 0,00 h 0,026 mm 0,0 UV-I 0 W/m -1,9 C 1,5 C 10,0 km/h (2 Bft) 97,50 %
27.11.2017 21:00 2,7 C 4,4 C 71 % 1019,3 hPa 0,0 l/m 7,0 km/h (2 Bft) S-SW 0,00 h 0,025 mm 0,0 UV-I 0 W/m -2,1 C 1,7 C 10,0 km/h (2 Bft) 96,70 %
27.11.2017 22:00 2,0 C 4,4 C 73 % 1018,7 hPa 0,0 l/m 3,4 km/h (1 Bft) S-SW 0,00 h 0,026 mm 0,0 UV-I 0 W/m -2,4 C 2,0 C 5,5 km/h (1 Bft) 97,72 %
27.11.2017 23:00 2,4 C 4,4 C 72 % 1017,8 hPa 0,0 l/m 3,7 km/h (1 Bft) S 0,00 h 0,000 mm 0,0 UV-I 0 W/m -2,0 C 2,4 C 6,2 km/h (2 Bft) 98,09 %
28.11.2017 00:00 2,6 C 4,4 C 75 % 1016,9 hPa 0,0 l/m 2,2 km/h (1 Bft) S 0,00 h 0,000 mm 0,0 UV-I 0 W/m -1,4 C 2,6 C 3,9 km/h (1 Bft) 98,27 %
28.11.2017 01:00 2,2 C 4,4 C 81 % 1016,0 hPa 0,0 l/m 1,2 km/h (1 Bft) S-SO 0,00 h 0,000 mm 0,0 UV-I 0 W/m -0,7 C 2,2 C 2,8 km/h (1 Bft) 96,24 %
28.11.2017 02:00 1,9 C 4,4 C 86 % 1015,5 hPa 0,0 l/m 1,8 km/h (1 Bft) NO 0,00 h 0,000 mm 0,0 UV-I 0 W/m -0,3 C 1,9 C 3,8 km/h (1 Bft) 97,10 %
28.11.2017 03:00 1,7 C 4,4 C 87 % 1014,8 hPa 0,0 l/m 1,9 km/h (1 Bft) W-NW 0,00 h 0,000 mm 0,0 UV-I 0 W/m -0,3 C 1,7 C 3,6 km/h (1 Bft) 97,67 %
28.11.2017 04:00 1,2 C 4,4 C 86 % 1014,1 hPa 0,0 l/m 2,0 km/h (1 Bft) S-SO 0,00 h 0,000 mm 0,0 UV-I 0 W/m -0,8 C 1,2 C 3,9 km/h (1 Bft) 98,56 %
28.11.2017 05:00 1,7 C 4,4 C 83 % 1013,4 hPa 0,0 l/m 2,4 km/h (1 Bft) S-SO 0,00 h 0,000 mm 0,0 UV-I 0 W/m -0,9 C 1,7 C 4,2 km/h (1 Bft) 96,67 %
28.11.2017 06:00 1,4 C 4,4 C 87 % 1013,2 hPa 0,0 l/m 1,0 km/h (0 Bft) SO 0,00 h 0,000 mm 0,0 UV-I 0 W/m -0,5 C 1,4 C 2,2 km/h (1 Bft) 97,41 %
28.11.2017 07:00 1,4 C 4,4 C 89 % 1012,7 hPa 0,0 l/m 2,8 km/h (1 Bft) S-SO 0,00 h 0,000 mm 0,0 UV-I 9 W/m -0,3 C 1,3 C 5,0 km/h (1 Bft) 97,28 %
28.11.2017 08:00 2,0 C 4,4 C 84 % 1012,0 hPa 0,0 l/m 2,7 km/h (1 Bft) SO 0,00 h 0,000 mm 0,0 UV-I 49 W/m -0,5 C 2,0 C 5,7 km/h (1 Bft) 98,77 %
28.11.2017 09:00 2,2 C 4,4 C 86 % 1011,9 hPa 0,0 l/m 1,3 km/h (1 Bft) NW 0,00 h 0,025 mm 0,0 UV-I 116 W/m 0,1 C 2,2 C 3,4 km/h (1 Bft) 96,15 %
28.11.2017 10:00 3,0 C 4,4 C 84 % 1011,5 hPa 0,0 l/m 1,8 km/h (1 Bft) S-SO 0,20 h 0,051 mm 0,5 UV-I 157 W/m 0,6 C 3,0 C 3,9 km/h (1 Bft) 96,24 %
28.11.2017 11:00 4,5 C 4,4 C 78 % 1010,9 hPa 0,0 l/m 4,3 km/h (1 Bft) SW 1,00 h 0,051 mm 0,6 UV-I 236 W/m 1,0 C 4,0 C 7,1 km/h (2 Bft) 95,53 %
28.11.2017 12:00 5,3 C 4,4 C 77 % 1010,3 hPa 0,0 l/m 6,6 km/h (2 Bft) SW 0,43 h 0,102 mm 0,6 UV-I 188 W/m 1,6 C 4,8 C 10,9 km/h (2 Bft) 96,55 %
28.11.2017 13:00 6,0 C 4,4 C 75 % 1009,9 hPa 0,0 l/m 4,0 km/h (1 Bft) S-SW 0,00 h 0,101 mm 0,0 UV-I 139 W/m 2,0 C 6,0 C 6,5 km/h (2 Bft) 99,37 %
28.11.2017 14:00 6,3 C 4,4 C 76 % 1009,5 hPa 0,0 l/m 1,3 km/h (1 Bft) S-SO 0,00 h 0,076 mm 0,0 UV-I 72 W/m 2,4 C 6,3 C 3,8 km/h (1 Bft) 98,21 %
28.11.2017 15:00 5,8 C 4,4 C 81 % 1009,3 hPa 0,0 l/m 1,0 km/h (0 Bft) S-SO 0,00 h 0,026 mm 0,0 UV-I 24 W/m 2,8 C 5,8 C 1,5 km/h (1 Bft) 98,75 %
28.11.2017 16:00 5,0 C 4,4 C 82 % 1009,2 hPa 0,0 l/m 3,7 km/h (1 Bft) S-SO 0,00 h 0,025 mm 0,0 UV-I 6 W/m 2,2 C 5,0 C 6,4 km/h (2 Bft) 96,91 %
28.11.2017 17:00 5,2 C 4,4 C 79 % 1008,9 hPa 0,0 l/m 2,6 km/h (1 Bft) S-SW 0,00 h 0,000 mm 0,0 UV-I 0 W/m 1,9 C 5,2 C 4,1 km/h (1 Bft) 96,78 %
28.11.2017 18:00 4,0 C 4,4 C 87 % 1008,4 hPa 0,0 l/m 2,3 km/h (1 Bft) S-SW 0,00 h 0,000 mm 0,0 UV-I 0 W/m 2,0 C 4,0 C 3,4 km/h (1 Bft) 99,08 %
28.11.2017 19:00 3,6 C 4,4 C 89 % 1008,0 hPa 0,0 l/m 2,0 km/h (1 Bft) O 0,00 h 0,000 mm 0,0 UV-I 0 W/m 1,9 C 3,6 C 3,4 km/h (1 Bft) 97,48 %
28.11.2017 20:00 3,2 C 4,4 C 90 % 1007,8 hPa 0,0 l/m 1,0 km/h (0 Bft) SO 0,00 h 0,000 mm 0,0 UV-I 0 W/m 1,7 C 3,2 C 2,4 km/h (1 Bft) 97,65 %
28.11.2017 21:00 3,0 C 4,4 C 91 % 1007,4 hPa 0,0 l/m 1,7 km/h (1 Bft) SO 0,00 h 0,000 mm 0,0 UV-I 0 W/m 1,6 C 3,0 C 3,2 km/h (1 Bft) 96,07 %
28.11.2017 22:00 1,7 C 4,4 C 94 % 1007,2 hPa 0,0 l/m 0,9 km/h (0 Bft) SO 0,00 h 0,000 mm 0,0 UV-I 0 W/m 0,8 C 1,7 C 1,6 km/h (1 Bft) 98,59 %
28.11.2017 23:00 0,9 C 4,4 C 95 % 1007,0 hPa 0,0 l/m 1,6 km/h (1 Bft) SO 0,00 h 0,000 mm 0,0 UV-I 0 W/m 0,3 C 0,9 C 2,3 km/h (1 Bft) 97,97 %
29.11.2017 00:00 1,3 C 4,4 C 95 % 1006,8 hPa 0,0 l/m 2,5 km/h (1 Bft) SO 0,00 h 0,000 mm 0,0 UV-I 0 W/m 0,7 C 1,3 C 4,3 km/h (1 Bft) 96,91 %
29.11.2017 01:00 2,2 C 4,4 C 94 % 1006,9 hPa 0,0 l/m 5,6 km/h (1 Bft) SW 0,00 h 0,000 mm 0,0 UV-I 0 W/m 1,4 C 2,2 C 8,3 km/h (2 Bft) 96,90 %
29.11.2017 02:00 2,7 C 4,4 C 95 % 1006,9 hPa 0,4 l/m 5,6 km/h (1 Bft) SW 0,00 h 0,000 mm 0,0 UV-I 0 W/m 2,0 C 2,6 C 8,4 km/h (2 Bft) 98,54 %
29.11.2017 03:00 2,9 C 4,4 C 96 % 1006,7 hPa 0,4 l/m 4,1 km/h (1 Bft) S-SW 0,00 h 0,000 mm 0,0 UV-I 0 W/m 2,2 C 2,9 C 6,5 km/h (2 Bft) 98,44 %
29.11.2017 04:00 2,7 C 4,4 C 96 % 1006,6 hPa 0,4 l/m 2,1 km/h (1 Bft) S-SW 0,00 h 0,000 mm 0,0 UV-I 0 W/m 2,2 C 2,7 C 3,9 km/h (1 Bft) 96,31 %
29.11.2017 05:00 2,8 C 4,4 C 97 % 1006,5 hPa 0,2 l/m 1,2 km/h (1 Bft) S 0,00 h 0,000 mm 0,0 UV-I 0 W/m 2,4 C 2,8 C 3,3 km/h (1 Bft) 98,34 %
29.11.2017 06:00 2,7 C 4,4 C 97 % 1006,4 hPa 0,0 l/m 0,8 km/h (0 Bft) S 0,00 h 0,000 mm 0,0 UV-I 0 W/m 2,2 C 2,7 C 2,3 km/h (1 Bft) 97,81 %
29.11.2017 07:00 2,7 C 4,4 C 97 % 1006,5 hPa 0,0 l/m 0,5 km/h (0 Bft) S 0,00 h 0,000 mm 0,0 UV-I 6 W/m 2,2 C 2,7 C 1,9 km/h (1 Bft) 98,40 %
29.11.2017 08:00 3,1 C 4,4 C 97 % 1006,8 hPa 0,0 l/m 0,4 km/h (0 Bft) S 0,00 h 0,000 mm 0,0 UV-I 41 W/m 2,6 C 3,1 C 1,5 km/h (1 Bft) 95,59 %
29.11.2017 09:00 3,5 C 4,4 C 96 % 1006,9 hPa 0,0 l/m 0,8 km/h (0 Bft) S 0,00 h 0,025 mm 0,0 UV-I 63 W/m 2,9 C 3,5 C 2,2 km/h (1 Bft) 98,18 %
29.11.2017 10:00 4,0 C 4,4 C 94 % 1006,8 hPa 0,2 l/m 0,6 km/h (0 Bft) S 0,00 h 0,026 mm 0,0 UV-I 93 W/m 3,1 C 4,0 C 1,5 km/h (1 Bft) 97,57 %
29.11.2017 11:00 4,6 C 4,4 C 90 % 1006,3 hPa 0,0 l/m 1,2 km/h (1 Bft) N-NO 0,27 h 0,025 mm 0,0 UV-I 175 W/m 3,1 C 4,6 C 3,3 km/h (1 Bft) 99,30 %
29.11.2017 12:00 4,9 C 4,4 C 87 % 1006,1 hPa 0,0 l/m 1,5 km/h (1 Bft) N-NO 0,03 h 0,076 mm 0,4 UV-I 153 W/m 3,0 C 4,9 C 3,2 km/h (1 Bft) 97,83 %
29.11.2017 13:00 4,8 C 4,4 C 90 % 1005,7 hPa 0,0 l/m 2,9 km/h (1 Bft) NO 0,00 h 0,051 mm 0,0 UV-I 87 W/m 3,4 C 4,8 C 5,5 km/h (1 Bft) 97,09 %
29.11.2017 14:00 4,7 C 4,4 C 91 % 1005,1 hPa 0,0 l/m 6,2 km/h (2 Bft) NO 0,23 h 0,026 mm 0,0 UV-I 93 W/m 3,4 C 4,1 C 9,8 km/h (2 Bft) 96,53 %
29.11.2017 15:00 4,2 C 4,4 C 91 % 1005,3 hPa 0,0 l/m 6,1 km/h (2 Bft) O-NO 0,00 h 0,050 mm 0,0 UV-I 24 W/m 2,9 C 3,9 C 9,0 km/h (2 Bft) 98,72 %
29.11.2017 16:00 3,8 C 4,4 C 92 % 1004,9 hPa 0,0 l/m 5,6 km/h (1 Bft) O-NO 0,00 h 0,026 mm 0,0 UV-I 5 W/m 2,7 C 3,7 C 8,5 km/h (2 Bft) 97,16 %
29.11.2017 17:00 3,6 C 4,4 C 94 % 1004,9 hPa 0,0 l/m 1,1 km/h (1 Bft) O-NO 0,00 h 0,000 mm 0,0 UV-I 0 W/m 2,7 C 3,6 C 2,3 km/h (1 Bft) 97,75 %
29.11.2017 18:00 3,4 C 4,4 C 95 % 1004,8 hPa 0,2 l/m 0,2 km/h (0 Bft) O-NO 0,00 h 0,000 mm 0,0 UV-I 0 W/m 2,7 C 3,4 C 1,2 km/h (1 Bft) 96,44 %
29.11.2017 19:00 3,3 C 4,4 C 96 % 1004,6 hPa 0,4 l/m 1,9 km/h (1 Bft) N-NO 0,00 h 0,000 mm 0,0 UV-I 0 W/m 2,7 C 3,3 C 3,9 km/h (1 Bft) 98,88 %
29.11.2017 20:00 3,1 C 4,4 C 96 % 1004,4 hPa 0,2 l/m 3,2 km/h (1 Bft) NO 0,00 h 0,000 mm 0,0 UV-I 0 W/m 2,6 C 3,1 C 5,8 km/h (2 Bft) 97,39 %
29.11.2017 21:00 2,8 C 4,4 C 96 % 1004,3 hPa 0,4 l/m 3,1 km/h (1 Bft) O-NO 0,00 h 0,000 mm 0,0 UV-I 0 W/m 2,3 C 2,8 C 5,1 km/h (1 Bft) 96,81 %
29.11.2017 22:00 2,5 C 4,4 C 96 % 1003,9 hPa 0,4 l/m 3,4 km/h (1 Bft) NO 0,00 h 0,000 mm 0,0 UV-I 0 W/m 2,0 C 2,5 C 5,4 km/h (1 Bft) 97,60 %
29.11.2017 23:00 2,2 C 4,4 C 96 % 1003,8 hPa 0,2 l/m 2,1 km/h (1 Bft) O-NO 0,00 h 0,000 mm 0,0 UV-I 0 W/m 1,7 C 2,2 C 3,4 km/h (1 Bft) 98,75 %
30.11.2017 00:00 1,9 C 4,4 C 97 % 1003,3 hPa 0,6 l/m 0,5 km/h (0 Bft) O-NO 0,00 h 0,000 mm 0,0 UV-I 0 W/m 1,5 C 1,9 C 1,3 km/h (1 Bft) 97,48 %
30.11.2017 01:00 1,4 C 4,4 C 97 % 1002,9 hPa 1,0 l/m 1,4 km/h (1 Bft) W-SW 0,00 h 0,000 mm 0,0 UV-I 0 W/m 0,9 C 1,4 C 2,9 km/h (1 Bft) 96,82 %
30.11.2017 02:00 0,7 C 4,4 C 97 % 1002,7 hPa 0,0 l/m 4,8 km/h (1 Bft) SW 0,00 h 0,000 mm 0,0 UV-I 0 W/m 0,3 C 0,7 C 7,1 km/h (2 Bft) 98,02 %
30.11.2017 03:00 0,4 C 4,4 C 97 % 1002,2 hPa 0,0 l/m 6,5 km/h (2 Bft) W-SW 0,00 h 0,000 mm 0,0 UV-I 0 W/m 0,0 C -0,0 C 10,5 km/h (2 Bft) 98,49 %
30.11.2017 04:00 0,4 C 4,4 C 98 % 1001,9 hPa 0,0 l/m 7,2 km/h (2 Bft) W-SW 0,00 h 0,000 mm 0,0 UV-I 0 W/m 0,1 C -0,5 C 11,3 km/h (2 Bft) 96,49 %
30.11.2017 05:00 0,3 C 4,4 C 98 % 1001,7 hPa 0,0 l/m 7,3 km/h (2 Bft) W 0,00 h 0,000 mm 0,0 UV-I 0 W/m 0,0 C -0,8 C 11,6 km/h (2 Bft) 97,13 %
30.11.2017 06:00 0,4 C 4,4 C 98 % 1001,9 hPa 0,0 l/m 6,2 km/h (2 Bft) W 0,00 h 0,000 mm 0,0 UV-I 0 W/m 0,1 C -0,1 C 9,8 km/h (2 Bft) 98,14 %
30.11.2017 07:00 0,3 C 4,4 C 98 % 1002,4 hPa 0,0 l/m 7,7 km/h (2 Bft) W-SW 0,00 h 0,000 mm 0,0 UV-I 4 W/m 0,0 C -1,0 C 11,8 km/h (2 Bft) 98,24 %
30.11.2017 08:00 0,3 C 4,4 C 98 % 1003,1 hPa 0,0 l/m 7,2 km/h (2 Bft) W-SW 0,00 h 0,000 mm 0,0 UV-I 10 W/m 0,1 C -0,6 C 11,8 km/h (2 Bft) 96,98 %
30.11.2017 09:00 0,3 C 4,4 C 98 % 1003,8 hPa 0,2 l/m 13,3 km/h (3 Bft) W-SW 0,00 h 0,000 mm 0,0 UV-I 37 W/m -0,0 C -5,5 C 20,5 km/h (4 Bft) 96,33 %
30.11.2017 10:00 0,4 C 4,4 C 97 % 1004,4 hPa 0,0 l/m 11,2 km/h (2 Bft) W-SW 0,00 h 0,025 mm 0,0 UV-I 64 W/m -0,0 C -3,8 C 17,1 km/h (3 Bft) 99,03 %
30.11.2017 11:00 0,5 C 4,4 C 95 % 1004,3 hPa 0,0 l/m 12,3 km/h (3 Bft) W-SW 0,00 h 0,026 mm 0,0 UV-I 81 W/m -0,3 C -4,6 C 18,8 km/h (3 Bft) 97,71 %
30.11.2017 12:00 0,7 C 4,4 C 95 % 1004,3 hPa 0,4 l/m 8,5 km/h (2 Bft) W-SW 0,00 h 0,025 mm 0,0 UV-I 119 W/m 0,0 C -1,2 C 13,9 km/h (3 Bft) 97,83 %
30.11.2017 13:00 1,1 C 4,4 C 94 % 1004,4 hPa 1,0 l/m 8,5 km/h (2 Bft) W-SW 0,00 h 0,051 mm 0,0 UV-I 115 W/m 0,3 C -0,9 C 13,1 km/h (3 Bft) 95,43 %
30.11.2017 14:00 1,1 C 4,4 C 95 % 1004,5 hPa 0,4 l/m 9,6 km/h (2 Bft) SW 0,00 h 0,051 mm 0,0 UV-I 38 W/m 0,3 C -1,9 C 14,7 km/h (3 Bft) 97,15 %
30.11.2017 15:00 1,1 C 4,4 C 94 % 1004,9 hPa 0,4 l/m 13,5 km/h (3 Bft) SW 0,00 h 0,025 mm 0,0 UV-I 23 W/m 0,2 C -4,7 C 20,4 km/h (4 Bft) 96,89 %
30.11.2017 16:00 1,0 C 4,4 C 94 % 1005,3 hPa 0,2 l/m 12,8 km/h (3 Bft) SW 0,00 h 0,026 mm 0,0 UV-I 7 W/m 0,1 C -4,3 C 19,7 km/h (3 Bft) 97,32 %
30.11.2017 17:00 0,8 C 4,4 C 94 % 1006,0 hPa 0,0 l/m 12,7 km/h (3 Bft) W-SW 0,00 h 0,000 mm 0,0 UV-I 0 W/m -0,1 C -4,3 C 19,4 km/h (3 Bft) 95,51 %
30.11.2017 18:00 0,8 C 4,4 C 93 % 1006,6 hPa 0,2 l/m 11,4 km/h (2 Bft) SW 0,00 h 0,000 mm 0,0 UV-I 0 W/m -0,1 C -3,6 C 17,3 km/h (3 Bft) 98,75 %
30.11.2017 19:00 0,7 C 4,4 C 94 % 1007,1 hPa 0,0 l/m 10,4 km/h (2 Bft) W-SW 0,00 h 0,000 mm 0,0 UV-I 0 W/m -0,2 C -2,9 C 15,6 km/h (3 Bft) 97,65 %
30.11.2017 20:00 0,9 C 4,4 C 91 % 1007,5 hPa 0,0 l/m 10,1 km/h (2 Bft) W-SW 0,00 h 0,000 mm 0,0 UV-I 0 W/m -0,4 C -2,3 C 15,2 km/h (3 Bft) 97,90 %
30.11.2017 21:00 0,5 C 4,4 C 94 % 1007,9 hPa 0,0 l/m 4,5 km/h (1 Bft) W 0,00 h 0,000 mm 0,0 UV-I 0 W/m -0,3 C -0,2 C 7,6 km/h (2 Bft) 95,71 %
30.11.2017 22:00 0,2 C 4,4 C 96 % 1008,3 hPa 0,0 l/m 3,6 km/h (1 Bft) SW 0,00 h 0,000 mm 0,0 UV-I 0 W/m -0,4 C 0,2 C 5,7 km/h (1 Bft) 98,05 %
30.11.2017 23:00 0,3 C 4,4 C 93 % 1008,6 hPa 0,0 l/m 4,9 km/h (1 Bft) SW 0,00 h 0,000 mm 0,0 UV-I 0 W/m -0,7 C 0,1 C 7,3 km/h (2 Bft) 97,95 %
01.12.2017 00:00 -0,3 C 4,4 C 94 % 1008,8 hPa 0,0 l/m 5,7 km/h (1 Bft) W-SW 0,00 h 0,000 mm 0,0 UV-I 0 W/m -1,1 C -1,2 C 9,0 km/h (2 Bft) 96,97 %
01.12.2017 01:00 -1,0 C 4,4 C 96 % 1008,9 hPa 0,0 l/m 2,5 km/h (1 Bft) S-SO 0,00 h 0,000 mm 0,0 UV-I 0 W/m -1,6 C -1,0 C 5,3 km/h (1 Bft) 96,97 %
01.12.2017 02:00 -0,6 C 4,4 C 94 % 1009,2 hPa 0,0 l/m 2,5 km/h (1 Bft) SW 0,00 h 0,000 mm 0,0 UV-I 0 W/m -1,4 C -0,6 C 5,0 km/h (1 Bft) 97,32 %
01.12.2017 03:00 -1,6 C 4,4 C 95 % 1009,3 hPa 0,0 l/m 1,2 km/h (1 Bft) SW 0,00 h 0,000 mm 0,0 UV-I 0 W/m -2,3 C -1,6 C 2,7 km/h (1 Bft) 99,01 %
01.12.2017 04:00 -2,1 C 4,4 C 96 % 1009,7 hPa 0,0 l/m 1,5 km/h (1 Bft) SW 0,00 h 0,000 mm 0,0 UV-I 0 W/m -2,6 C -2,1 C 2,5 km/h (1 Bft) 95,09 %
01.12.2017 05:00 -1,8 C 4,4 C 96 % 1010,1 hPa 0,0 l/m 2,0 km/h (1 Bft) S 0,00 h 0,000 mm 0,0 UV-I 0 W/m -2,4 C -1,8 C 4,3 km/h (1 Bft) 99,17 %
01.12.2017 06:00 -2,6 C 4,4 C 97 % 1010,5 hPa 0,0 l/m 1,0 km/h (0 Bft) O-SO 0,00 h 0,000 mm 0,0 UV-I 0 W/m -3,1 C -2,6 C 2,2 km/h (1 Bft) 97,22 %
01.12.2017 07:00 -2,6 C 4,4 C 96 % 1011,2 hPa 0,0 l/m 2,2 km/h (1 Bft) O-SO 0,03 h 0,000 mm 0,0 UV-I 10 W/m -3,1 C -2,6 C 4,2 km/h (1 Bft) 97,12 %
01.12.2017 08:00 -2,4 C 4,4 C 96 % 1011,8 hPa 0,0 l/m 1,5 km/h (1 Bft) S-SO 0,00 h 0,000 mm 0,0 UV-I 33 W/m -3,0 C -2,4 C 2,9 km/h (1 Bft) 97,46 %
01.12.2017 09:00 -2,7 C 4,4 C 96 % 1012,5 hPa 0,0 l/m 1,5 km/h (1 Bft) NO 0,13 h 0,000 mm 0,0 UV-I 76 W/m -3,2 C -2,7 C 2,4 km/h (1 Bft) 99,16 %
01.12.2017 10:00 -2,0 C 4,4 C 96 % 1013,0 hPa 0,0 l/m 2,8 km/h (1 Bft) O-NO 0,10 h 0,025 mm 0,0 UV-I 110 W/m -2,6 C -2,0 C 4,4 km/h (1 Bft) 96,85 %
01.12.2017 11:00 -0,6 C 4,4 C 93 % 1013,1 hPa 0,2 l/m 4,6 km/h (1 Bft) NO 0,95 h 0,051 mm 0,6 UV-I 277 W/m -1,6 C -0,7 C 7,0 km/h (2 Bft) 97,04 %
01.12.2017 12:00 -0,8 C 4,4 C 95 % 1013,3 hPa 0,0 l/m 5,7 km/h (1 Bft) N-NO 0,03 h 0,076 mm 0,4 UV-I 148 W/m -1,5 C -1,4 C 9,8 km/h (2 Bft) 99,02 %
01.12.2017 13:00 -0,7 C 4,4 C 95 % 1013,4 hPa 0,4 l/m 2,8 km/h (1 Bft) NO 0,57 h 0,051 mm 0,5 UV-I 192 W/m -1,4 C -0,7 C 4,7 km/h (1 Bft) 98,05 %
01.12.2017 14:00 -0,2 C 4,4 C 94 % 1013,7 hPa 0,2 l/m 1,2 km/h (1 Bft) NO 0,63 h 0,051 mm 0,0 UV-I 144 W/m -1,0 C -0,2 C 2,6 km/h (1 Bft) 98,91 %
01.12.2017 15:00 -0,5 C 4,4 C 95 % 1014,4 hPa 0,0 l/m 0,9 km/h (0 Bft) S 1,00 h 0,051 mm 0,0 UV-I 59 W/m -1,2 C -0,5 C 2,0 km/h (1 Bft) 96,56 %
01.12.2017 16:00 -1,6 C 4,4 C 96 % 1015,1 hPa 0,0 l/m 0,7 km/h (0 Bft) S 0,03 h 0,025 mm 0,0 UV-I 8 W/m -2,1 C -1,6 C 1,9 km/h (1 Bft) 97,25 %
01.12.2017 17:00 -2,4 C 4,4 C 97 % 1016,0 hPa 0,0 l/m 1,6 km/h (1 Bft) S 0,00 h 0,000 mm 0,0 UV-I 0 W/m -2,8 C -2,4 C 3,7 km/h (1 Bft) 97,83 %
01.12.2017 18:00 -2,9 C 4,4 C 97 % 1016,6 hPa 0,0 l/m 1,8 km/h (1 Bft) S 0,00 h 0,000 mm 0,0 UV-I 0 W/m -3,3 C -2,9 C 3,9 km/h (1 Bft) 98,74 %
01.12.2017 19:00 -3,7 C 4,4 C 96 % 1017,1 hPa 0,0 l/m 3,0 km/h (1 Bft) S 0,00 h 0,000 mm 0,0 UV-I 0 W/m -4,2 C -3,7 C 5,2 km/h (1 Bft) 97,08 %
01.12.2017 20:00 -3,0 C 4,4 C 97 % 1017,7 hPa 0,0 l/m 1,5 km/h (1 Bft) S 0,00 h 0,000 mm 0,0 UV-I 0 W/m -3,4 C -3,0 C 4,1 km/h (1 Bft) 98,26 %
01.12.2017 21:00 -2,6 C 4,4 C 97 % 1018,2 hPa 0,0 l/m 2,4 km/h (1 Bft) S-SO 0,00 h 0,000 mm 0,0 UV-I 0 W/m -3,0 C -2,6 C 4,3 km/h (1 Bft) 98,08 %
01.12.2017 22:00 -2,2 C 4,4 C 97 % 1018,6 hPa 0,0 l/m 1,3 km/h (1 Bft) O 0,00 h 0,000 mm 0,0 UV-I 0 W/m -2,6 C -2,2 C 3,2 km/h (1 Bft) 96,74 %
01.12.2017 23:00 -1,7 C 4,4 C 97 % 1019,0 hPa 0,0 l/m 5,2 km/h (1 Bft) O-NO 0,00 h 0,000 mm 0,0 UV-I 0 W/m -2,2 C -1,8 C 7,9 km/h (2 Bft) 98,17 %
02.12.2017 00:00 -1,3 C 4,4 C 96 % 1019,2 hPa 0,0 l/m 8,6 km/h (2 Bft) NO 0,00 h 0,000 mm 0,0 UV-I 0 W/m -1,7 C -3,5 C 13,4 km/h (3 Bft) 99,12 %
02.12.2017 01:00 -1,1 C 4,4 C 95 % 1019,4 hPa 0,0 l/m 10,1 km/h (2 Bft) NO 0,00 h 0,000 mm 0,0 UV-I 0 W/m -1,7 C -4,7 C 15,2 km/h (3 Bft) 97,50 %
02.12.2017 02:00 -1,0 C 4,4 C 94 % 1020,2 hPa 0,0 l/m 9,3 km/h (2 Bft) NO 0,00 h 0,000 mm 0,0 UV-I 0 W/m -1,8 C -3,8 C 14,0 km/h (3 Bft) 97,31 %
02.12.2017 03:00 -1,0 C 4,4 C 95 % 1020,6 hPa 0,0 l/m 8,6 km/h (2 Bft) NO 0,00 h 0,000 mm 0,0 UV-I 0 W/m -1,8 C -3,3 C 13,1 km/h (3 Bft) 99,28 %
02.12.2017 04:00 -1,1 C 4,4 C 93 % 1021,1 hPa 0,0 l/m 10,3 km/h (2 Bft) O-NO 0,00 h 0,000 mm 0,0 UV-I 0 W/m -2,0 C -4,7 C 15,6 km/h (3 Bft) 98,06 %
02.12.2017 05:00 -1,1 C 4,4 C 92 % 1021,6 hPa 0,0 l/m 9,8 km/h (2 Bft) O-NO 0,00 h 0,000 mm 0,0 UV-I 0 W/m -2,2 C -4,3 C 14,5 km/h (3 Bft) 97,30 %
02.12.2017 06:00 -1,2 C 4,4 C 92 % 1022,1 hPa 0,0 l/m 4,8 km/h (1 Bft) NO 0,00 h 0,000 mm 0,0 UV-I 0 W/m -2,3 C -1,3 C 7,2 km/h (2 Bft) 98,05 %
02.12.2017 07:00 -1,2 C 4,4 C 92 % 1022,8 hPa 0,0 l/m 2,1 km/h (1 Bft) N-NO 0,00 h 0,000 mm 0,0 UV-I 5 W/m -2,3 C -1,2 C 4,0 km/h (1 Bft) 98,93 %
02.12.2017 08:00 -1,2 C 4,4 C 93 % 1023,3 hPa 0,0 l/m 1,0 km/h (0 Bft) N-NO 0,00 h 0,000 mm 0,0 UV-I 24 W/m -2,2 C -1,2 C 2,3 km/h (1 Bft) 96,93 %
02.12.2017 09:00 -1,0 C 4,4 C 93 % 1023,8 hPa 0,0 l/m 1,2 km/h (1 Bft) N-NO 0,00 h 0,000 mm 0,0 UV-I 78 W/m -2,0 C -1,0 C 3,0 km/h (1 Bft) 97,25 %
02.12.2017 10:00 -0,7 C 4,4 C 91 % 1024,2 hPa 0,0 l/m 1,9 km/h (1 Bft) N-NO 0,00 h 0,025 mm 0,0 UV-I 111 W/m -2,0 C -0,7 C 3,8 km/h (1 Bft) 97,54 %
02.12.2017 11:00 -0,5 C 4,4 C 88 % 1024,2 hPa 0,0 l/m 4,9 km/h (1 Bft) NO 0,17 h 0,026 mm 0,5 UV-I 158 W/m -2,2 C -0,6 C 7,1 km/h (2 Bft) 99,40 %
02.12.2017 12:00 -0,3 C 4,4 C 88 % 1024,1 hPa 0,2 l/m 5,6 km/h (1 Bft) O-NO 0,00 h 0,051 mm 0,5 UV-I 157 W/m -2,1 C -0,5 C 8,1 km/h (2 Bft) 97,85 %
02.12.2017 13:00 -0,2 C 4,4 C 87 % 1024,3 hPa 0,2 l/m 4,9 km/h (1 Bft) NO 0,00 h 0,050 mm 0,0 UV-I 115 W/m -2,1 C -0,3 C 7,1 km/h (2 Bft) 98,37 %
02.12.2017 14:00 -0,3 C 4,4 C 88 % 1024,3 hPa 0,0 l/m 6,4 km/h (2 Bft) O-NO 0,00 h 0,051 mm 0,0 UV-I 79 W/m -2,1 C -0,7 C 9,4 km/h (2 Bft) 96,11 %
02.12.2017 15:00 -0,4 C 4,4 C 89 % 1024,5 hPa 0,0 l/m 3,9 km/h (1 Bft) O-NO 0,03 h 0,026 mm 0,0 UV-I 28 W/m -2,0 C -0,4 C 5,8 km/h (2 Bft) 99,02 %
02.12.2017 16:00 -0,6 C 4,4 C 89 % 1024,6 hPa 0,0 l/m 3,1 km/h (1 Bft) NO 0,00 h 0,025 mm 0,0 UV-I 6 W/m -2,1 C -0,6 C 4,9 km/h (1 Bft) 97,68 %
02.12.2017 17:00 -0,7 C 4,4 C 91 % 1024,9 hPa 0,0 l/m 2,6 km/h (1 Bft) N-NO 0,00 h 0,000 mm 0,0 UV-I 0 W/m -2,0 C -0,7 C 4,7 km/h (1 Bft) 98,39 %
02.12.2017 18:00 -0,7 C 4,4 C 91 % 1025,1 hPa 0,0 l/m 2,6 km/h (1 Bft) N-NO 0,00 h 0,000 mm 0,0 UV-I 0 W/m -2,1 C -0,7 C 4,2 km/h (1 Bft) 96,47 %
02.12.2017 19:00 -0,9 C 4,4 C 90 % 1025,3 hPa 0,0 l/m 4,0 km/h (1 Bft) N-NO 0,00 h 0,000 mm 0,0 UV-I 0 W/m -2,4 C -0,9 C 5,9 km/h (2 Bft) 99,26 %
02.12.2017 20:00 -1,2 C 4,4 C 89 % 1025,4 hPa 0,0 l/m 3,5 km/h (1 Bft) O-NO 0,00 h 0,000 mm 0,0 UV-I 0 W/m -2,8 C -1,2 C 5,7 km/h (1 Bft) 97,69 %
02.12.2017 21:00 -1,2 C 4,4 C 88 % 1025,3 hPa 0,0 l/m 2,6 km/h (1 Bft) O 0,00 h 0,000 mm 0,0 UV-I 0 W/m -3,0 C -1,2 C 4,2 km/h (1 Bft) 97,29 %
02.12.2017 22:00 -1,3 C 4,4 C 89 % 1025,3 hPa 0,0 l/m 1,0 km/h (0 Bft) O 0,00 h 0,000 mm 0,0 UV-I 0 W/m -2,9 C -1,3 C 1,8 km/h (1 Bft) 97,52 %
02.12.2017 23:00 -1,4 C 4,4 C 91 % 1025,3 hPa 0,0 l/m 1,0 km/h (0 Bft) O 0,00 h 0,000 mm 0,0 UV-I 0 W/m -2,7 C -1,4 C 1,9 km/h (1 Bft) 99,02 %
03.12.2017 00:00 -1,5 C 4,4 C 92 % 1025,2 hPa 0,0 l/m 0,5 km/h (0 Bft) O 0,00 h 0,000 mm 0,0 UV-I 0 W/m -2,6 C -1,5 C 1,1 km/h (1 Bft) 96,89 %
03.12.2017 01:00 -1,4 C 4,4 C 92 % 1024,9 hPa 0,0 l/m 0,3 km/h (0 Bft) O 0,00 h 0,000 mm 0,0 UV-I 0 W/m -2,6 C -1,4 C 1,1 km/h (0 Bft) 97,49 %
03.12.2017 02:00 -1,4 C 4,4 C 89 % 1024,6 hPa 0,0 l/m 1,8 km/h (1 Bft) O 0,00 h 0,000 mm 0,0 UV-I 0 W/m -2,9 C -1,4 C 3,2 km/h (1 Bft) 98,14 %
03.12.2017 03:00 -1,4 C 4,4 C 87 % 1024,0 hPa 0,0 l/m 2,2 km/h (1 Bft) S-SO 0,00 h 0,000 mm 0,0 UV-I 0 W/m -3,3 C -1,4 C 4,0 km/h (1 Bft) 98,71 %
03.12.2017 04:00 -1,4 C 4,4 C 89 % 1024,1 hPa 0,0 l/m 2,1 km/h (1 Bft) NO 0,00 h 0,000 mm 0,0 UV-I 0 W/m -3,0 C -1,4 C 3,4 km/h (1 Bft) 96,46 %
03.12.2017 05:00 -1,6 C 4,4 C 92 % 1024,5 hPa 0,0 l/m 1,8 km/h (1 Bft) NO 0,00 h 0,000 mm 0,0 UV-I 0 W/m -2,7 C -1,6 C 2,9 km/h (1 Bft) 99,11 %
03.12.2017 06:00 -1,5 C 4,4 C 92 % 1024,8 hPa 0,0 l/m 2,9 km/h (1 Bft) W-SW 0,00 h 0,000 mm 0,0 UV-I 0 W/m -2,7 C -1,5 C 5,2 km/h (1 Bft) 98,59 %
03.12.2017 07:00 -1,4 C 4,4 C 91 % 1025,1 hPa 0,0 l/m 3,2 km/h (1 Bft) W-SW 0,00 h 0,000 mm 0,0 UV-I 5 W/m -2,7 C -1,4 C 4,9 km/h (1 Bft) 96,86 %
03.12.2017 08:00 -1,2 C 4,4 C 90 % 1025,4 hPa 0,0 l/m 1,9 km/h (1 Bft) W-SW 0,00 h 0,000 mm 0,0 UV-I 30 W/m -2,7 C -1,2 C 3,7 km/h (1 Bft) 97,92 %
03.12.2017 09:00 -0,7 C 4,4 C 88 % 1025,4 hPa 0,0 l/m 3,4 km/h (1 Bft) W-SW 0,17 h 0,000 mm 0,0 UV-I 112 W/m -2,5 C -0,7 C 5,5 km/h (1 Bft) 98,58 %
03.12.2017 10:00 0,1 C 4,4 C 79 % 1025,4 hPa 0,0 l/m 4,4 km/h (1 Bft) W-SW 1,00 h 0,051 mm 0,5 UV-I 305 W/m -3,1 C -0,3 C 8,1 km/h (2 Bft) 98,32 %
03.12.2017 11:00 0,2 C 4,4 C 76 % 1025,1 hPa 0,2 l/m 7,6 km/h (2 Bft) W-SW 0,43 h 0,101 mm 0,4 UV-I 229 W/m -3,6 C -1,2 C 12,6 km/h (3 Bft) 99,15 %
03.12.2017 12:00 -0,2 C 4,4 C 76 % 1024,9 hPa 0,0 l/m 8,7 km/h (2 Bft) W 0,00 h 0,077 mm 0,4 UV-I 87 W/m -3,8 C -2,5 C 14,4 km/h (3 Bft) 97,50 %
03.12.2017 13:00 -0,2 C 4,4 C 77 % 1024,9 hPa 0,0 l/m 8,9 km/h (2 Bft) W 0,00 h 0,050 mm 0,0 UV-I 113 W/m -3,8 C -2,7 C 14,7 km/h (3 Bft) 98,89 %
03.12.2017 14:00 -0,3 C 4,4 C 75 % 1024,7 hPa 0,0 l/m 11,0 km/h (2 Bft) W-SW 0,00 h 0,051 mm 0,0 UV-I 46 W/m -4,2 C -4,5 C 16,6 km/h (3 Bft) 96,20 %
03.12.2017 15:00 -0,5 C 4,4 C 78 % 1024,9 hPa 0,0 l/m 10,2 km/h (2 Bft) W-SW 0,00 h 0,026 mm 0,0 UV-I 19 W/m -3,9 C -4,1 C 16,3 km/h (3 Bft) 98,88 %
03.12.2017 16:00 -0,5 C 4,4 C 77 % 1025,0 hPa 0,0 l/m 11,2 km/h (2 Bft) W 0,00 h 0,025 mm 0,0 UV-I 6 W/m -4,0 C -4,9 C 17,4 km/h (3 Bft) 97,97 %
03.12.2017 17:00 -0,6 C 4,4 C 80 % 1025,3 hPa 0,0 l/m 8,2 km/h (2 Bft) W-SW 0,00 h 0,025 mm 0,0 UV-I 0 W/m -3,7 C -2,5 C 12,8 km/h (3 Bft) 99,32 %
03.12.2017 18:00 -0,6 C 4,4 C 82 % 1025,4 hPa 0,0 l/m 8,7 km/h (2 Bft) W-SW 0,00 h 0,026 mm 0,0 UV-I 0 W/m -3,3 C -2,9 C 13,4 km/h (3 Bft) 95,97 %
03.12.2017 19:00 -0,6 C 4,4 C 83 % 1025,5 hPa 0,0 l/m 10,3 km/h (2 Bft) W-SW 0,00 h 0,025 mm 0,0 UV-I 0 W/m -3,1 C -4,4 C 16,5 km/h (3 Bft) 99,05 %
03.12.2017 20:00 -0,6 C 4,4 C 81 % 1025,8 hPa 0,0 l/m 11,3 km/h (2 Bft) SW 0,00 h 0,026 mm 0,0 UV-I 0 W/m -3,4 C -5,1 C 17,0 km/h (3 Bft) 97,92 %
03.12.2017 21:00 -0,7 C 4,4 C 79 % 1025,7 hPa 0,0 l/m 16,4 km/h (3 Bft) W-SW 0,00 h 0,025 mm 0,0 UV-I 0 W/m -3,9 C -8,5 C 24,6 km/h (4 Bft) 99,52 %
03.12.2017 22:00 -0,8 C 4,4 C 80 % 1025,5 hPa 0,0 l/m 17,6 km/h (3 Bft) W-SW 0,00 h 0,025 mm 0,0 UV-I 0 W/m -3,9 C -9,4 C 25,5 km/h (4 Bft) 96,08 %
03.12.2017 23:00 -0,7 C 4,4 C 81 % 1025,6 hPa 0,2 l/m 16,5 km/h (3 Bft) SW 0,00 h 0,026 mm 0,0 UV-I 0 W/m -3,6 C -8,7 C 25,7 km/h (4 Bft) 98,70 %
Min-Datum _ 01.12.17 27.11.17 27.11.17 30.11.17 - 28.11.17 - - - - - 03.12.17 03.12.17 28.11.17 27.11.17
_ Min-Zeit 19:34 00:00 13:24 05:18 - 00:50 - - - - - 14:12 21:52 00:50 10:44
Minimum _ -3,8 C 4,4 C 64 % 1001,5 hPa - 0,0 km/h (0 Bft) - - - - - -4,7 C -11,4 C 0,0 km/h (0 Bft) 71,70 %
Max-Datum _ 28.11.17 27.11.17 30.11.17 27.11.17 30.11.17 27.11.17 - 01.12.17 27.11.17 27.11.17 03.12.17 29.11.17 28.11.17 03.12.17 27.11.17
_ Max-Zeit 14:06 00:00 03:40 08:04 01:02 13:16 - 11:12 14:00 11:30 11:08 14:20 14:06 23:02 00:00
Maximum _ 6,3 C 4,4 C 98 % 1027,0 hPa 1,0 l/m 23,8 km/h
W-SW (4 Bft)
- 0,12 h 0,178 mm 0,7 UV-I 470 W/m 3,9 C 6,3 C 37,0 km/h
W-SW (5 Bft)
100,00 %
Durchschnitt _ 0,9 C 4,4 C 89 % 1015,3 hPa #9,8 l/m 5,3 km/h (1 Bft) W-SW #10:49 h #2,998 mm 0,5 UV-I 91 W/m -0,8 C -0,4 C 8,4 km/h (2 Bft) 97,68 %